This is the latest recevied weather packets stored in our database for station/object KP4CRN. If no packets are shown the sender has not sent any weather packets the latest 10 day(s).
| Time | Temp. | Humidity | Pressure | Rain* | Wind** | Luminosity | Snow |
|---|---|---|---|---|---|---|---|
| 1777632398 | 23.89° C | 99% | 1014.2 hPa | 0 mm | - | 42 W/m² | - |
| 1777632095 | 23.89° C | 99% | 1014 hPa | 0 mm | - | 37 W/m² | - |
| 1777631792 | 23.89° C | 99% | 1014.1 hPa | 0 mm | - | 31 W/m² | - |
| 1777631491 | 23.89° C | 99% | 1013.9 hPa | 0 mm | - | 25 W/m² | - |
| 1777631187 | 23.89° C | 99% | 1013.5 hPa | 0 mm | - | 20 W/m² | - |
| 1777630885 | 23.89° C | 99% | 1013.8 hPa | 0 mm | - | 16 W/m² | - |
| 1777630580 | 23.89° C | 99% | 1013.9 hPa | 0 mm | - | 12 W/m² | - |
| 1777630277 | 23.89° C | 99% | 1013.7 hPa | 0 mm | - | 9 W/m² | - |
| 1777629975 | 23.89° C | 99% | 1013.7 hPa | 0 mm | - | 5 W/m² | - |
| 1777629673 | 24.44° C | 99% | 1013.5 hPa | 0 mm | - | 3 W/m² | - |
| 1777629369 | 24.44° C | 99% | 1013.6 hPa | 0 mm | - | 2 W/m² | - |
| 1777629064 | 24.44° C | 99% | 1013.6 hPa | 0 mm | - | 1 W/m² | - |
| 1777628761 | 24.44° C | 99% | 1013.6 hPa | 0 mm | - | 0 W/m² | - |
| 1777628457 | 24.44° C | 99% | 1013.7 hPa | 0 mm | - | 0 W/m² | - |
| 1777628154 | 24.44° C | 99% | 1013.4 hPa | 0 mm | - | 0 W/m² | - |
| 1777627849 | 24.44° C | 99% | 1013.5 hPa | 0 mm | - | 0 W/m² | - |
| 1777627548 | 24.44° C | 99% | 1013.4 hPa | 0 mm | - | 0 W/m² | - |
| 1777627244 | 24.44° C | 99% | 1013.4 hPa | 0 mm | - | 0 W/m² | - |
| 1777626940 | 24.44° C | 99% | 1013.3 hPa | 0 mm | - | 0 W/m² | - |
| 1777626637 | 24.44° C | 99% | 1013.4 hPa | 0 mm | - | 0 W/m² | - |
| 1777626332 | 24.44° C | 99% | 1013.3 hPa | 0 mm | - | 0 W/m² | - |
| 1777626031 | 24.44° C | 99% | 1013.1 hPa | 0 mm | - | 0 W/m² | - |
| 1777625726 | 24.44° C | 99% | 1013.3 hPa | 0 mm | - | 0 W/m² | - |
| 1777625422 | 24.44° C | 99% | 1013.2 hPa | 0 mm | - | 0 W/m² | - |
| 1777625118 | 24.44° C | 99% | 1013.1 hPa | 0 mm | - | 0 W/m² | - |
* Rain latest hour (hover to see other rain measurements)
** Current wind speed in m/s (hover to see current wind gust speed)